VK2XSE Weather Reports


time (UTC)temp
C
wind
direction
speed
KPH
gust
KPH
rain 1hr
cm
rain 24hr
cm
rain mn
cm
humidity
%
barometer
mb
20260503225518 13 338 1.6 3.2 0.03 2.24 0.18 95 1016.7
20260503224518 12 338 1.6 6.4 0.03 2.24 0.18 95 1016.6
20260503223518 12 315 1.6 4.8 0.00 2.21 0.15 95 1016.5
20260503222518 12 315 1.6 4.8 0.00 2.21 0.15 95 1016.5
20260503221518 12 0.0 3.2 0.00 2.21 0.15 95 1016.4
20260503220518 11 0.0 3.2 0.00 2.21 0.15 95 1016.4
20260503215518 11 0.0 3.2 0.00 2.21 0.15 94 1016.4
20260503214518 11 0.0 3.2 0.00 2.24 0.15 94 1016.3
20260503213518 11 0.0 3.2 0.00 2.24 0.15 94 1016.2
20260503212518 11 0.0 1.6 0.00 2.26 0.15 94 1016.1
20260503211518 11 0.0 0.0 0.00 2.26 0.15 93 1015.9
20260503210518 11 0.0 3.2 0.00 2.26 0.15 93 1015.9
20260503205518 11 0.0 3.2 0.00 2.26 0.15 93 1015.9
20260503204518 11 0.0 0.0 0.00 2.26 0.15 93 1015.8
20260503203518 11 0.0 0.0 0.00 2.26 0.15 93 1015.6
20260503202518 11 0.0 0.0 0.00 2.26 0.15 93 1015.6
20260503201518 11 0.0 3.2 0.00 2.26 0.15 93 1015.4
20260503200518 11 0.0 3.2 0.00 2.26 0.15 93 1015.3
20260503195518 11 0.0 0.0 0.00 2.26 0.15 93 1015.3
20260503194518 11 0.0 0.0 0.00 2.26 0.15 93 1015.4
20260503193518 11 0.0 1.6 0.00 2.26 0.15 93 1015.4
20260503192518 11 0.0 3.2 0.00 2.26 0.15 93 1015.2
20260503191517 12 0.0 0.0 0.00 2.26 0.15 93 1015.2
20260503190518 12 0.0 0.0 0.00 2.26 0.15 93 1015.2
20260503185518 12 0.0 0.0 0.00 2.26 0.15 93 1015.1
20260503184517 12 0.0 0.0 0.00 2.26 0.15 93 1014.9
20260503183517 12 0.0 0.0 0.00 2.26 0.15 93 1015.0
20260503182518 12 0.0 1.6 0.00 2.26 0.15 93 1014.9
20260503181517 12 0.0 1.6 0.00 2.26 0.15 93 1014.8
20260503180517 12 0.0 3.2 0.00 2.26 0.15 93 1015.1
20260503175517 12 0.0 3.2 0.00 2.26 0.15 93 1015.2
20260503174517 12 0.0 1.6 0.00 2.26 0.15 93 1015.2
20260503173517 12 0.0 3.2 0.00 2.26 0.15 93 1015.3
20260503172517 12 0.0 3.2 0.00 2.26 0.15 93 1015.2
20260503171517 12 0.0 3.2 0.00 2.26 0.15 93 1015.1
20260503170517 12 0.0 3.2 0.00 2.26 0.15 93 1015.1
20260503150517 13 0.0 3.2 0.15 2.24 0.15 93 1015.7
20260503130516 13 0.0 3.2 0.05 1.98 1.98 92 1015.7
20260503110518 16 315 3.2 6.4 0.79 1.75 1.75 92 1015.7
20260503081518 17 338 1.6 3.2 0.43 0.81 0.81 92 1014.5
20260503080518 17 338 1.6 4.8 0.71 0.81 0.81 92 1014.5
20260503072518 17 293 4.8 17.7 0.51 0.53 0.53 90 1015.2
20260503071518 17 270 6.4 17.7 0.36 0.41 0.41 88 1015.1
20260503070518 17 270 9.7 16.1 0.08 0.13 0.13 84 1015.1
20260503054517 21 338 1.6 4.8 0.00 0.05 0.05 69 1014.1
20260503053517 21 338 3.2 6.4 0.00 0.05 0.05 69 1014.0
20260503052517 21 338 3.2 6.4 0.00 0.05 0.05 69 1013.9
20260503051517 21 23 3.2 11.3 0.00 0.05 0.05 69 1013.6
20260503050517 21 23 1.6 6.4 0.00 0.05 0.05 69 1013.4
20260503045517 21 0 3.2 8.0 0.00 0.05 0.05 69 1013.3
20260503044517 21 0 1.6 4.8 0.00 0.05 0.05 69 1013.4
20260503043517 21 315 1.6 3.2 0.00 0.05 0.05 69 1013.6
20260503042517 21 315 1.6 6.4 0.00 0.05 0.05 69 1014.0
20260503041517 21 0 1.6 3.2 0.00 0.05 0.05 70 1014.1
20260503040517 22 0 1.6 3.2 0.00 0.05 0.05 70 1014.1
20260503035517 22 0 1.6 4.8 0.00 0.05 0.05 67 1014.2
20260503034517 22 338 3.2 6.4 0.00 0.05 0.05 65 1014.4
20260503033517 22 338 3.2 9.7 0.00 0.05 0.05 64 1014.5
20260503032517 23 0 4.8 12.9 0.00 0.05 0.05 64 1014.6
20260503031517 23 0 4.8 11.3 0.00 0.05 0.05 64 1014.7
20260503030517 23 315 4.8 17.7 0.00 0.05 0.05 65 1014.7
20260503025517 23 338 6.4 12.9 0.00 0.05 0.05 62 1014.8
20260503024517 23 338 4.8 14.5 0.00 0.05 0.05 63 1014.9
20260503023517 23 338 4.8 14.5 0.00 0.05 0.05 63 1014.9
20260503022517 23 338 6.4 14.5 0.00 0.05 0.05 60 1015.1
20260503021517 24 315 4.8 8.0 0.00 0.05 0.05 57 1015.0
20260503020517 24 315 6.4 16.1 0.00 0.05 0.05 58 1015.1
20260503015517 24 338 6.4 12.9 0.00 0.05 0.05 58 1015.2
20260503014517 24 0 4.8 14.5 0.00 0.05 0.05 58 1015.4
20260503013517 23 0 6.4 12.9 0.00 0.05 0.05 59 1015.4
20260503012517 23 0 6.4 19.3 0.00 0.05 0.05 61 1015.5
20260503011517 23 338 4.8 12.9 0.00 0.05 0.05 62 1015.3
20260503010517 22 293 6.4 14.5 0.00 0.05 0.05 63 1015.4
20260503005517 22 338 4.8 11.3 0.00 0.05 0.05 64 1015.6
20260503004517 22 315 4.8 12.9 0.00 0.05 0.05 64 1015.6
20260503003517 22 338 4.8 14.5 0.00 0.05 0.05 66 1015.6
20260503002517 21 338 3.2 8.0 0.00 0.05 0.05 68 1015.7
20260503001517 21 315 3.2 6.4 0.00 0.05 0.05 68 1015.9
20260503000517 21 23 3.2 8.0 0.00 0.05 0.05 68 1015.9
20260502235517 20 23 3.2 8.0 0.00 0.05 0.05 69 1015.9
20260502234517 20 315 3.2 6.4 0.00 0.05 0.05 69 1016.1
20260502233516 20 338 1.6 8.0 0.00 0.05 0.05 70 1016.3
20260502232516 20 23 1.6 6.4 0.00 0.05 0.05 71 1016.4
20260502231516 20 23 1.6 4.8 0.00 0.05 0.05 72 1016.5
20260502230516 20 23 1.6 6.4 0.00 0.05 0.05 74 1016.4